{"data":{"norad_id":50572,"intl_designator":"2021-134A","name":"TIANHUI 4A","alt_names":[],"object_type":"PAYLOAD","status":"ACTIVE","operator":null,"country":"PRC","launch_date":"2021-12-29","launch_site_code":"JSC","launch_vehicle":null,"mission":null,"orbit_class":"UNKNOWN","rcs_meters":null,"size_class":null,"mass_kg":null,"dimensions":null,"purposes":[],"wikipedia_slug":null,"has_3d_model":false,"image_url":null,"decayed_at":null,"tle_current":{"epoch":"2026-05-25T04:30:58.077216Z","epoch_age_seconds":52774,"freshness":"FRESH","line1":"1 50572U 21134A   26145.18817219  .00005072  00000+0  10269-3 0  9999","line2":"2 50572  88.9708 326.0024 0009526 142.6182 217.5742 15.46143945246310","mean_motion":15.46143945,"eccentricity":0.0009526,"inclination_deg":88.9708,"raan_deg":326.0024,"arg_perigee_deg":142.6182,"mean_anomaly_deg":217.5742,"bstar":0.00010269,"rev_number":24631,"period_min":93.134924769246,"perigee_km":421.53534464911,"apogee_km":434.50243284835,"semimajor_km":6806.1558887487,"source":"CELESTRAK","updated_at":"2026-05-25T13:37:57.348980Z"}}}